User: anonymous   Login
Location: Melbourne
(37.8170°S, 144.9670°E)
Time: 05:44:43
(UTC+10:00)
Language:

Cosmos 962 Rocket - Orbit

View from above orbital plane
View from above orbital plane
View from above satellite
View from above satellite

Ground track
Ground track

The orbit data is extracted from the following two-line orbital elements,

1 10461U 77107B   15207.98154336  .00000025  00000-0  10570-4 0  9992
2 10461 082.9497 166.5270 0031842 283.3500 140.0577 13.76733437895661
Epoch (UTC): 26 July 2015 23:33:25
Eccentricity: 0.0031842
inclination: 82.9497°
perigee height: 952 km
apogee height: 999 km
right ascension of ascending node: 166.5270°
argument of perigee: 283.3500°
revolutions per day: 13.76733437
mean anomaly at epoch: 140.0577°
orbit number at epoch: 89566

The dashed part of the orbit path shows where the satellite is in the earth's shadow,  

DLR